GW3796 Weather Reports


time (UTC)temp
F
wind
direction
speed
knots
gust
knots
rain 1hr
in
rain 24hr
in
rain mn
in
humidity
%
barometer
mb
20260906230632 100 64 2.6 3.5 0.00 0.00 0.00 37 1011.8
20260906225629 100 49 4.3 7.0 0.00 0.00 0.00 37 1011.8
20260906224627 101 42 4.3 6.1 0.00 0.00 0.00 37 1011.9
20260906223625 101 32 2.6 3.5 0.00 0.00 0.00 37 1012.0
20260906222622 101 58 4.3 7.0 0.00 0.00 0.00 36 1012.0
20260906221621 102 86 3.5 5.2 0.00 0.00 0.00 37 1012.0
20260906220619 101 48 3.5 4.3 0.00 0.00 0.00 39 1012.1
20260906215628 100 14 2.6 6.1 0.00 0.00 0.00 39 1012.1
20260906214626 101 41 4.3 7.0 0.00 0.00 0.00 37 1012.3
20260906213624 102 28 4.3 7.0 0.00 0.00 0.00 36 1012.4
20260906212642 103 49 1.7 3.5 0.00 0.00 0.00 35 1012.6
20260906211720 101 42 2.6 4.3 0.00 0.00 0.00 37 1012.7
20260906210630 101 66 3.5 5.2 0.00 0.00 0.00 38 1012.8
20260906205707 100 108 2.6 3.5 0.00 0.00 0.00 38 1012.9
20260906204624 100 48 6.1 7.8 0.00 0.00 0.00 37 1013.1
20260906203642 100 47 4.3 7.0 0.00 0.00 0.00 40 1013.1
20260906202620 100 54 3.5 7.0 0.00 0.00 0.00 39 1013.2
20260906201631 100 51 5.2 8.7 0.00 0.00 0.00 40 1013.2
20260906200628 101 65 2.6 3.5 0.00 0.00 0.00 39 1013.4
20260906195626 101 100 4.3 6.1 0.00 0.00 0.00 39 1013.5
20260906194623 99 56 3.5 6.1 0.00 0.00 0.00 39 1013.6
20260906193641 100 71 2.6 4.3 0.00 0.00 0.00 40 1013.7
20260906192619 99 70 2.6 5.2 0.00 0.00 0.00 41 1013.8
20260906191650 99 43 6.1 7.8 0.00 0.00 0.00 41 1014.0
20260906190627 99 52 5.2 7.8 0.00 0.00 0.00 40 1014.0
20260906185624 100 117 3.5 6.1 0.00 0.00 0.00 40 1014.0
20260906184621 100 41 3.5 6.1 0.00 0.00 0.00 41 1014.1
20260906183619 100 95 4.3 7.0 0.00 0.00 0.00 40 1014.2
20260906182629 100 74 4.3 7.0 0.00 0.00 0.00 40 1014.4
20260906181626 98 53 3.5 5.2 0.00 0.00 0.00 44 1014.5
20260906180627 97 35 3.5 6.1 0.00 0.00 0.00 44 1014.6
20260906175624 98 80 4.3 6.1 0.00 0.00 0.00 44 1014.9
20260906174620 97 38 5.2 7.0 0.00 0.00 0.00 44 1015.1
20260906173618 97 65 4.3 7.8 0.00 0.00 0.00 45 1015.2
20260906172627 97 44 3.5 8.7 0.00 0.00 0.00 45 1015.3
20260906171628 97 77 4.3 7.0 0.00 0.00 0.00 44 1015.4
20260906170625 97 53 1.7 2.6 0.00 0.00 0.00 46 1015.4
20260906165622 96 60 2.6 4.3 0.00 0.00 0.00 46 1015.5
20260906164619 97 135 2.6 3.5 0.00 0.00 0.00 46 1015.7
20260906163648 96 95 1.7 3.5 0.00 0.00 0.00 47 1015.8
20260906162626 97 79 3.5 5.2 0.00 0.00 0.00 46 1015.7
20260906161624 96 28 3.5 6.1 0.00 0.00 0.00 48 1015.7
20260906160624 95 61 1.7 3.5 0.00 0.00 0.00 50 1015.8
20260906155621 96 59 1.7 4.3 0.00 0.00 0.00 50 1015.8
20260906154629 95 67 1.7 2.6 0.00 0.00 0.00 52 1015.8
20260906153626 95 102 2.6 4.3 0.00 0.00 0.00 53 1015.6
20260906152645 94 64 2.6 4.3 0.00 0.00 0.00 53 1015.4
20260906151623 93 58 1.7 3.5 0.00 0.00 0.00 55 1015.1
20260906150623 92 47 0.9 2.6 0.00 0.00 0.00 57 1014.9
20260906145640 92 18 2.6 6.1 0.00 0.00 0.00 57 1015.2
20260906144628 91 105 0.9 2.6 0.00 0.00 0.00 59 1015.1
20260906143646 90 62 3.5 4.3 0.00 0.00 0.00 60 1015.1
20260906142643 90 50 2.6 3.5 0.00 0.00 0.00 61 1015.1
20260906141622 89 123 0.0 1.7 0.00 0.00 0.00 63 1015.2
20260906140622 88 20 0.9 3.5 0.00 0.00 0.00 65 1015.1
20260906135639 87 40 0.0 0.9 0.00 0.00 0.00 66 1015.1
20260906134626 86 68 0.9 2.6 0.00 0.00 0.00 69 1015.0
20260906133645 85 36 3.5 4.3 0.00 0.00 0.00 69 1015.0
20260906132622 84 52 2.6 3.5 0.00 0.00 0.00 71 1014.8
20260906131620 83 94 2.6 3.5 0.00 0.00 0.00 72 1014.9
20260906130621 82 31 2.6 3.5 0.00 0.00 0.00 74 1015.1
20260906125627 81 47 0.9 1.7 0.00 0.00 0.00 77 1015.0
20260906124625 79 33 1.7 2.6 0.00 0.00 0.00 80 1014.9
20260906123703 78 39 0.9 2.6 0.00 0.00 0.00 81 1014.6
20260906122621 78 102 0.0 2.6 0.00 0.00 0.00 82 1014.7
20260906121639 78 0.0 0.0 0.00 0.00 0.00 81 1014.5
20260906120620 78 0.0 0.0 0.00 0.00 0.00 81 1014.4
20260906115626 78 0.0 0.9 0.00 0.00 0.00 83 1014.2
20260906114724 78 59 0.0 0.9 0.00 0.00 0.00 82 1014.2
20260906113622 79 0.0 0.0 0.00 0.00 0.00 80 1014.3
20260906112620 79 48 0.0 0.9 0.00 0.00 0.00 79 1014.2
20260906111621 79 0.0 0.0 0.00 0.00 0.00 79 1014.1
20260906110619 79 0.0 0.0 0.00 0.00 0.00 79 1013.9
20260906105625 78 0.0 0.0 0.00 0.00 0.00 79 1014.0
20260906104623 78 0.0 0.0 0.00 0.00 0.00 80 1014.0
20260906103621 78 0.0 0.0 0.00 0.00 0.00 80 1013.9
20260906102618 79 0.0 0.0 0.00 0.00 0.00 81 1014.0
20260906101620 79 28 0.0 0.9 0.00 0.00 0.00 81 1013.8
20260906100625 79 0.0 0.0 0.00 0.00 0.00 80 1013.6
20260906095623 79 0.0 0.0 0.00 0.00 0.00 78 1013.7
20260906094622 79 0.0 0.0 0.00 0.00 0.00 77 1013.7
20260906093619 80 0.0 0.0 0.00 0.00 0.00 76 1013.6
20260906092623 80 0.0 0.0 0.00 0.00 0.00 75 1013.3
20260906091639 80 74 0.0 0.9 0.00 0.00 0.00 75 1013.4
20260906090624 81 61 0.0 0.9 0.00 0.00 0.00 75 1013.4
20260906085623 81 0.0 0.0 0.00 0.00 0.00 75 1013.1
20260906084640 81 58 0.9 0.9 0.00 0.00 0.00 76 1013.3
20260906083638 82 92 0.9 0.9 0.00 0.00 0.00 74 1013.2
20260906082621 82 138 0.0 1.7 0.00 0.00 0.00 73 1013.1
20260906081618 82 105 0.9 2.6 0.00 0.00 0.00 72 1013.2
20260906080643 82 0.0 0.0 0.00 0.00 0.00 72 1013.3
20260906075621 83 106 0.0 0.9 0.00 0.00 0.00 71 1013.5
20260906074619 83 109 1.7 2.6 0.00 0.00 0.00 71 1013.4
20260906073623 83 0.0 0.9 0.00 0.00 0.00 70 1013.5
20260906072620 83 42 0.9 2.6 0.00 0.00 0.00 69 1013.6
20260906071626 83 82 1.7 2.6 0.00 0.00 0.00 69 1013.6
20260906070622 83 78 0.9 2.6 0.00 0.00 0.00 69 1013.4
20260906065620 83 61 0.9 1.7 0.00 0.00 0.00 70 1013.4
20260906064645 83 0.0 0.9 0.00 0.00 0.00 70 1013.6
20260906063622 84 114 0.0 0.9 0.00 0.00 0.00 69 1013.9
20260906062639 84 0.0 0.9 0.00 0.00 0.00 69 1013.6
20260906061643 84 9 0.0 1.7 0.00 0.00 0.00 69 1013.5
20260906060641 84 192 0.9 1.7 0.00 0.00 0.00 68 1013.8
20260906055619 85 34 0.0 1.7 0.00 0.00 0.00 68 1014.0
20260906054624 85 265 0.0 1.7 0.00 0.00 0.00 67 1013.6
20260906053701 85 120 0.9 1.7 0.00 0.00 0.00 67 1013.6
20260906052623 85 78 1.7 2.6 0.00 0.00 0.00 66 1013.9
20260906051622 86 79 2.6 5.2 0.00 0.00 0.00 66 1013.9
20260906050620 86 89 1.7 2.6 0.00 0.00 0.00 66 1013.9
20260906045628 86 33 2.6 5.2 0.00 0.00 0.00 65 1014.0
20260906044623 86 103 0.9 2.6 0.00 0.00 0.00 65 1013.8
20260906043700 86 69 0.0 0.9 0.00 0.00 0.00 64 1013.7
20260906042622 87 100 0.9 2.6 0.00 0.00 0.00 63 1013.6
20260906041620 87 41 1.7 5.2 0.00 0.00 0.00 63 1013.5
20260906040629 87 92 2.6 3.5 0.00 0.00 0.00 62 1013.7
20260906035627 87 12 2.6 6.1 0.00 0.00 0.00 62 1013.5
20260906034622 87 47 3.5 5.2 0.00 0.00 0.00 61 1013.7
20260906033659 88 92 2.6 4.3 0.00 0.00 0.00 60 1013.6
20260906032621 88 108 2.6 5.2 0.00 0.00 0.00 60 1013.7
20260906031639 88 40 3.5 5.2 0.00 0.00 0.00 59 1013.5
20260906030628 88 57 3.5 5.2 0.00 0.00 0.00 59 1013.5
20260906025646 89 22 3.5 6.1 0.00 0.00 0.00 58 1013.6
20260906024621 89 100 3.5 4.3 0.00 0.00 0.00 57 1013.2
20260906023622 89 58 4.3 5.2 0.00 0.00 0.00 57 1013.1
20260906022631 90 55 4.3 8.7 0.00 0.00 0.00 56 1012.9
20260906021629 90 57 2.6 4.3 0.00 0.00 0.00 55 1012.8
20260906020626 91 38 5.2 7.0 0.00 0.00 0.00 53 1012.8
20260906015625 91 49 4.3 6.1 0.00 0.00 0.00 52 1012.5
20260906014619 92 33 5.2 7.8 0.00 0.00 0.00 51 1012.3
20260906013620 94 60 6.1 10.4 0.00 0.00 0.00 47 1012.1
20260906012619 94 47 2.6 4.3 0.00 0.00 0.00 43 1011.8
20260906011627 95 33 3.5 5.2 0.00 0.00 0.00 42 1011.6
20260906010625 95 64 2.6 5.2 0.00 0.00 0.00 41 1011.7
20260906005624 95 44 2.6 5.2 0.00 0.00 0.00 41 1011.6
20260906004619 96 51 0.9 4.3 0.00 0.00 0.00 40 1011.5
20260906003619 96 38 3.5 3.5 0.00 0.00 0.00 39 1011.6
20260906002649 97 21 1.7 4.3 0.00 0.00 0.00 39 1011.7
20260906001646 98 46 2.6 5.2 0.00 0.00 0.00 38 1011.7
20260906000624 98 71 2.6 3.5 0.00 0.00 0.00 38 1011.6
20260905235622 99 46 2.6 4.3 0.00 0.00 0.00 37 1011.5
20260905234620 99 29 2.6 3.5 0.00 0.00 0.00 37 1011.5
20260905233631 100 56 5.2 7.8 0.00 0.00 0.00 37 1011.6
20260905232628 100 40 2.6 4.3 0.00 0.00 0.00 36 1011.6
20260905231625 101 39 1.7 2.6 0.00 0.00 0.00 36 1011.6